Location: Huntsville
(34.7300°N, 86.5860°W)
Time: 04:20:53
(UTC-06:00)

Daily predictions for brighter satellites

Satellite Brightness Start Highest point End
(mag) Time Altitude Azimuth Time Altitude Azimuth Time Altitude Azimuth
ATLAS 5 CENTAUR R/B 4.3 03:22:37 17° NE 03:22:37 17° NE 03:23:52 10° NE
Cosmos 1943 Rocket 3.6 03:28:16 33° NE 03:28:16 33° NE 03:31:32 10° NNE
CZ-4C R/B 3.8 03:33:26 25° ESE 03:34:02 25° ESE 03:38:29 10° NE
Lacrosse 5 2.7 04:10:00 40° N 04:10:00 40° N 04:13:30 10° NNE
USA 234 3.2 04:03:30 10° NE 04:09:53 59° NW 04:10:14 58° NW
ADEOS II 3.4 04:04:46 10° N 04:07:15 28° N 04:07:15 28° N
Cosmos 1452 Rocket 3.9 04:10:36 36° S 04:12:39 62° ESE 04:17:51 10° NNE
Meteor 1-31 Rocket 4.2 04:12:42 10° NNE 04:14:57 32° NNE 04:14:57 32° NNE
Cosmos 2369 Rocket 3.9 04:25:33 19° NNW 04:25:33 19° NNW 04:27:42 10° N
ATLAS 3B R/B 4.3 04:22:35 10° S 04:29:19 36° ESE 04:35:56 10° NE
COSMO-SKYMED 1 4.5 04:27:05 10° SE 04:30:53 30° ENE 04:34:41 10° N
Cosmos 2221 Rocket 3.8 04:27:44 10° S 04:32:16 74° E 04:36:50 10° N
Feng Yun 1-1 Rocket 4.3 04:26:41 10° NNE 04:32:37 86° WNW 04:38:32 10° SSW
Cosmos 1656 Rocket 3.7 04:28:47 20° SSW 04:32:46 83° ESE 04:38:28 10° NNE
Cosmos 407 Rocket 3.4 04:28:00 11° NNW 04:33:13 83° WSW 04:38:32 10° SSE
Cosmos 676 Rocket 4.2 04:31:39 10° NNW 04:36:58 73° ENE 04:42:16 10° SSE
Nadezhda 2 Rocket 4.3 04:34:05 10° NNW 04:40:06 64° W 04:46:09 10° S
CZ-4B R/B 3.8 04:38:58 10° N 04:42:49 60° WNW 04:42:49 60° WNW
Cosmos 1833 4.0 04:43:04 10° NNW 04:48:40 76° WSW 04:54:14 10° SSE
GEOS 3 Rocket 3.8 04:43:55 10° S 04:48:44 44° WSW 04:49:56 37° W
Cosmos 1140 Rocket 4.0 04:49:01 10° N 04:54:12 61° ENE 04:59:23 10° SSE
Okean 1-7 2.9 04:53:07 10° SSW 04:57:21 65° W 05:01:37 10° N
Cosmos 1190 Rocket 4.5 04:57:30 23° NW 05:00:02 37° W 05:04:51 10° SSW
Cosmos 1417 Rocket 4.4 04:53:57 10° SSW 05:00:03 61° W 05:06:09 10° N
Sich 1 Rocket 4.2 04:59:24 10° NNW 05:03:28 33° W 05:07:28 10° SSW
Cosmos 1745 Rocket 4.2 04:57:32 10° N 05:03:42 75° E 05:09:47 10° S
ATLAS 5 CENTAUR R/B 3.5 05:04:12 16° NW 05:04:12 16° NW 05:07:17 10° N
Cosmos 1908 Rocket 4.2 05:01:55 10° NNW 05:05:54 33° W 05:09:54 10° SSW
Radarsat Rocket 4.2 04:59:11 10° NNE 05:06:23 84° WNW 05:12:41 10° SSW
Meteor 2-10 Rocket 3.8 05:02:21 13° SW 05:06:28 38° WNW 05:11:09 10° N
Tiangong 1 2.3 05:07:42 25° NNW 05:07:57 25° NNW 05:10:28 10° NE
Cosmos 1943 Rocket 3.4 05:09:50 20° WNW 05:10:14 21° WNW 05:14:18 10° N
Cosmos 1782 Rocket 3.7 05:07:12 10° NNW 05:11:32 51° W 05:15:49 10° SSW
Okean-O 3.6 05:08:41 10° NNW 05:12:22 26° WNW 05:13:21 24° W
Meteor 1-28 Rocket 3.5 05:09:27 10° SSE 05:13:07 67° ENE 05:16:50 10° N
Chunghua 1 4.5 05:13:48 28° W 05:15:43 90° N 05:19:30 10° E
Meteor 1-20 Rocket 4.2 05:10:33 10° N 05:16:17 88° E 05:21:51 10° S
SKYMED 2 3.5 05:14:30 10° S 05:18:50 70° W 05:23:09 10° NNW
Cosmos 1782 2.7 05:14:57 10° SSW 05:18:54 74° W 05:22:53 10° N
Cosmos 1850 Rocket 4.5 05:13:50 10° N 05:19:09 66° ENE 05:24:24 10° SSE
CZ-4C R/B 2.7 05:18:41 17° WSW 05:22:11 37° NW 05:27:34 10° NNE
Meteor 1-14 Rocket 4.4 05:16:48 10° NNW 05:22:20 48° W 05:27:44 10° SSW
IDEFIX/ARIANE 42P 4.0 05:21:31 10° NNE 05:26:28 42° E 05:31:21 10° S
Cosmos 1954 Rocket 4.3 05:22:06 10° NNW 05:27:10 46° WSW 05:32:13 10° S
Cosmos 1420 Rocket 4.4 05:25:30 10° SW 05:30:18 39° WNW 05:35:09 10° N
Ariane Rocket 3.0 05:26:09 10° NNE 05:31:16 86° WNW 05:36:20 10° SSW
CSL-04 Rocket 3.8 05:26:48 10° NNE 05:32:13 82° ESE 05:37:40 10° SSW
Okean 2 Rocket 3.5 05:30:14 10° NNW 05:34:17 37° W 05:38:20 10° SSW
Cosmos 1674 Rocket 3.9 05:30:05 10° S 05:34:26 71° E 05:38:50 10° NNE
Cosmos 1606 2.7 05:31:42 10° SSW 05:35:30 59° W 05:39:21 10° N
Meteor 2-6 Rocket 4.1 05:37:08 10° SSW 05:42:28 64° W 05:47:50 10° N
Cosmos 1331 Rocket 4.2 05:46:13 10° S 05:51:22 78° ESE 05:56:34 10° NNE
USA 238 DEB 4.0 05:44:42 10° SSW 05:51:42 80° ESE 05:58:44 10° NNE
USA 238 4.0 05:44:47 10° SSW 05:51:47 79° ESE 05:58:49 10° NNE
Lacrosse 5 3.9 05:50:33 10° NW 05:52:30 12° NNW 05:54:27 10° N
Cosmos 1607 4.0 05:46:47 10° SW 05:52:48 61° WNW 05:58:54 10° NNE
Cosmos 2297 Rocket 4.0 05:47:57 10° N 05:53:02 34° ENE 05:58:06 10° SE
Cosmos 2151 Rocket 3.8 05:49:07 10° NNW 05:53:30 52° W 05:57:50 10° S
Cosmos 2278 3.9 05:49:34 10° SSW 05:55:12 81° ESE 06:00:52 10° NNE
COSMOS 2455 4.0 05:49:29 10° S 05:55:15 50° ESE 06:01:02 10° NE
Delta 2 Rocket 4.0 05:50:24 10° W 05:55:25 89° N 06:01:01 10° E
Okean 1 Rocket 4.0 05:51:35 10° N 05:55:54 53° E 06:00:09 10° SSE
CZ-4 R/B 1.7 05:52:18 10° NNE 05:56:29 78° ESE 06:00:33 10° S
Gblst 52 Del rocket 4.4 05:52:27 10° SW 05:58:09 87° NW 06:04:38 10° NE
CSL-04 Debris 4.2 05:56:08 10° N 06:01:27 62° WNW 06:06:45 10° SSW
